This demonstration page uses our WeatherBlox Daily Observations layout. Learn more.

Left ArrowRight Arrow

39.51506, -84.39828

Hourly Observations for March 26, 2016

Temp ( °F °C ) Dew Point ( °F °C ) Humidity (%) Winds ( mph kmh ) Pressure ( in mb ) Visibility ( mi km ) Precip ( " mm )
12:15 am 00:15 Clear 34 1.2 31 -0.7 87 87 Calm 30.24 1024 10 16 0.00 0.00
12:35 am 00:35 Clear 34 1.2 31 -0.7 87 87 NNE 5 7 30.24 1024 10 16 0.00 0.00
12:55 am 00:55 Clear 34 1.2 31 -0.7 87 87 Calm 30.24 1024 10 16 0.00 0.00
1:15 am 01:15 Clear 34 1.2 31 -0.7 87 87 N 3 6 30.24 1024 10 16 0.00 0.00
1:35 am 01:35 Clear 34 1.2 31 -0.5 89 89 NNE 3 6 30.24 1024 7 11 0.00 0.00
1:55 am 01:55 Clear 34 1.2 31 -0.5 89 89 NNE 5 7 30.24 1024 10 16 0.00 0.00
2:15 am 02:15 Clear 34 1.2 31 -0.5 89 89 NNE 5 7 30.21 1023 10 16 0.00 0.00
2:35 am 02:35 Clear 34 1.2 31 -0.8 87 87 NNE 3 6 30.24 1024 10 16 0.00 0.00
2:55 am 02:55 Clear 34 1.2 30 -1 85 85 NNE 5 7 30.21 1023 10 16 0.00 0.00
3:15 am 03:15 Clear 34 1.2 30 -1 85 85 NNE 5 7 30.21 1023 10 16 0.00 0.00
3:35 am 03:35 Clear 34 1.2 30 -1 85 85 NE 5 7 30.21 1023 10 16 0.00 0.00
3:55 am 03:55 Clear 34 1.2 30 -1 85 85 Calm 30.21 1023 10 16 0.00 0.00
4:15 am 04:15 Clear 34 1.2 30 -1.1 85 85 Calm 30.21 1023 10 16 0.00 0.00
4:35 am 04:35 Clear 34 1.2 30 -1 85 85 Calm 30.21 1023 10 16 0.00 0.00
4:55 am 04:55 Clear 34 1.2 31 -0.8 87 87 Calm 30.21 1023 10 16 0.00 0.00
5:15 am 05:15 Clear 34 1 30 -0.9 87 87 Calm 30.21 1023 7 11 0.00 0.00
5:35 am 05:35 Clear with Mist and Fog 33 0.4 29 -1.4 88 88 Calm 30.21 1023 5 8 0.00 0.00
5:55 am 05:55 Clear with Mist and Fog 32 -0.1 28 -2 87 87 Calm 30.24 1024 5 8 0.00 0.00
6:15 am 06:15 Clear with Mist and Fog 31 -0.8 27 -2.6 88 88 N 3 6 30.24 1024 5 8 0.00 0.00
6:35 am 06:35 Clear 29 -1.5 26 -3.1 89 89 NNE 3 6 30.24 1024 7 11 0.00 0.00
6:55 am 06:55 Clear with Mist and Fog 30 -1.2 27 -3 88 88 NE 3 6 30.24 1024 5 8 0.00 0.00
7:15 am 07:15 Clear 31 -0.4 28 -2.2 88 88 NNE 3 6 30.24 1024 7 11 0.00 0.00
7:35 am 07:35 Sunny with Mist and Fog 31 -0.7 28 -2.3 89 89 ENE 3 6 30.24 1024 4 6 0.00 0.00
7:55 am 07:55 Sunny with Mist and Fog 30 -1.2 27 -2.9 88 88 Calm 30.24 1024 4 6 0.00 0.00
8:15 am 08:15 Sunny with Mist and Fog 29 -1.4 26 -3.1 88 88 NE 3 6 30.27 1025 4 6 0.00 0.00
8:35 am 08:35 Sunny with Mist and Fog 34 1.2 31 -0.3 90 90 NNE 3 6 30.27 1025 4 6 0.00 0.00
8:55 am 08:55 Sunny 36 2.2 32 0.2 87 87 NNE 3 6 30.27 1025 7 11 0.00 0.00
9:15 am 09:15 Sunny 38 3.6 33 0.8 82 82 ENE 5 7 30.27 1025 10 16 0.00 0.00
9:35 am 09:35 Sunny 39 4 33 0.7 79 79 NE 5 7 30.27 1025 10 16 0.00 0.00
9:55 am 09:55 Sunny 41 5 34 1.3 77 77 NE 3 6 30.27 1025 10 16 0.00 0.00
10:15 am 10:15 Sunny 43 6.1 34 1.3 72 72 NE 5 7 30.24 1024 10 16 0.00 0.00
10:35 am 10:35 Sunny 45 7.1 35 1.7 69 69 NE 5 7 30.24 1024 10 16 0.00 0.00
10:55 am 10:55 Sunny 49 9.3 37 2.5 63 63 ESE 6 9 30.24 1024 10 16 0.00 0.00
11:15 am 11:15 Sunny 49 9.6 36 2.3 61 61 ESE 3 6 30.24 1024 10 16 0.00 0.00
11:35 am 11:35 Sunny 49 9.6 34 1.3 57 57 E 3 6 30.21 1023 10 16 0.00 0.00
11:55 am 11:55 Sunny 50 10.1 35 1.9 57 57 E 7 11 30.21 1023 10 16 0.00 0.00
12:15 pm 12:15 Sunny 53 11.5 37 2.5 54 54 E 6 9 30.21 1023 10 16 0.00 0.00
12:35 pm 12:35 Sunny 55 12.5 38 3.3 54 54 ENE 5 7 30.18 1022 10 16 0.00 0.00
12:55 pm 12:55 Sunny 55 12.5 37 2.5 51 51 NE 8 13 30.18 1022 10 16 0.00 0.00
1:15 pm 13:15 Sunny 55 12.7 36 2.1 49 49 NE 7 11 30.18 1022 10 16 0.00 0.00
1:35 pm 13:35 Sunny 56 13.6 36 2.4 47 47 SE 8 13 30.18 1022 10 16 0.00 0.00
1:55 pm 13:55 Sunny 57 13.8 37 2.7 47 47 S 5 7 30.18 1022 10 16 0.00 0.00
2:15 pm 14:15 Sunny 59 15.1 38 3.2 45 45 E 7 11 30.18 1022 10 16 0.00 0.00
2:35 pm 14:35 Sunny 60 15.3 37 2.8 43 43 S 7 11 30.18 1022 10 16 0.00 0.00
2:55 pm 14:55 Sunny 60 15.3 36 2 41 41 SSE 5 7 30.18 1022 10 16 0.00 0.00
3:15 pm 15:15 Sunny 60 15.6 35 1.8 40 40 Calm 30.18 1022 10 16 0.00 0.00
3:35 pm 15:35 Sunny 60 15.3 34 0.9 38 38 Calm 30.15 1021 10 16 0.00 0.00
3:55 pm 15:55 Sunny 62 16.4 33 0.7 35 35 SSE 5 7 30.15 1021 10 16 0.00 0.00
4:15 pm 16:15 Sunny 61 16.1 32 -0.1 33 33 ESE 5 7 30.15 1021 10 16 0.00 0.00
4:35 pm 16:35 Sunny 62 16.6 32 0.2 33 33 ESE 7 11 30.15 1021 10 16 0.00 0.00
4:55 pm 16:55 Sunny 63 17 33 0.3 32 32 ESE 8 13 30.12 1020 10 16 0.00 0.00
5:15 pm 17:15 Sunny 63 17.1 33 0.4 32 32 ESE 5 7 30.09 1019 10 16 0.00 0.00
5:35 pm 17:35 Sunny 63 17.1 33 0.4 32 32 E 8 13 30.09 1019 10 16 0.00 0.00
5:55 pm 17:55 Sunny 63 17.1 33 0.7 33 33 ESE 7 11 30.12 1020 10 16 0.00 0.00
6:15 pm 18:15 Sunny 63 17.1 32 0.1 32 32 E 8 13 30.12 1020 10 16 0.00 0.00
6:35 pm 18:35 Sunny 63 17 31 -0.3 31 31 E 5 7 30.12 1020 10 16 0.00 0.00
6:55 pm 18:55 Sunny 62 16.7 32 0 32 32 E 6 9 30.12 1020 10 16 0.00 0.00
7:15 pm 19:15 Sunny 62 16.6 32 0.2 33 33 ESE 5 7 30.15 1021 10 16 0.00 0.00
7:35 pm 19:35 Sunny 60 15.3 37 2.5 42 42 E 6 9 30.15 1021 10 16 0.00 0.00
7:55 pm 19:55 Sunny 60 15.3 36 2.3 42 42 E 6 9 30.15 1021 10 16 0.00 0.00
8:15 pm 20:15 Clear 57 13.8 34 1.2 43 43 E 5 7 30.15 1021 10 16 0.00 0.00
8:35 pm 20:35 Clear 56 13.6 35 1.6 44 44 E 5 7 30.15 1021 10 16 0.00 0.00
8:55 pm 20:55 Clear 50 10 38 3.4 64 64 NE 6 9 30.12 1020 10 16 0.00 0.00
9:15 pm 21:15 Clear 49 9.6 41 5.2 74 74 NE 5 7 30.12 1020 10 16 0.00 0.00
9:35 pm 21:35 Clear 49 9.6 39 3.9 68 68 NE 5 7 30.12 1020 10 16 0.00 0.00
9:55 pm 21:55 Clear 49 9.6 41 5.2 74 74 NE 5 7 30.12 1020 10 16 0.00 0.00
10:15 pm 22:15 Clear 47 8.2 39 4 75 75 NNE 5 7 30.12 1020 10 16 0.00 0.00
10:35 pm 22:35 Clear 44 6.7 38 3.1 78 78 Calm 30.12 1020 10 16 0.00 0.00
10:55 pm 22:55 Clear 44 6.8 37 3 77 77 Calm 30.12 1020 10 16 0.00 0.00
11:15 pm 23:15 Clear 44 6.8 39 4 83 83 Calm 30.12 1020 10 16 0.00 0.00
11:35 pm 23:35 Clear 42 5.8 37 2.7 81 81 Calm 30.15 1021 10 16 0.00 0.00
11:55 pm 23:55 Clear 42 5.5 37 2.5 81 81 Calm 30.15 1021 10 16 0.00 0.00

Powered by AerisWeather